Погода в Круглом

Беларусь     54°14′48″N   29°47′47″E
темп.,
°C
ветер,
м/с
пор.,
м/с
влажн.,
%
обл.,
%
осадки,
мм/ч
давл.,
гПа
погр.,
м
15 апреля, чт
чт1500:00+8св4794100 0.1 1016145
03:00+7ссв4896100 0.1 1016209
06:00+7ссв5895100 0.1 1016289
09:00+7ссв5996100 1.7 1015373
12:00+7ссв61296100 4.8 1014585
15:00+10св7119097 4.8 1014620
18:00+9ссв7139198 0.1 1013671
21:00+9ссв71595100 0.9 1012596
16 апреля, пт
пт1600:00+9всв6109465 0.4 1012340
03:00+7всв489748 0.4 1013234
06:00+7св489531 0.0 1013214
09:00+10всв7118792 1.1 1014606
12:00+13вюв796519 0.6 10151408
15:00+15в7951100 0.7 10152002
18:00+11всв61082100 0.2 1016711
21:00+8св4991100 0.3 1017277
17 апреля, сб
сб1700:00+9всв4995100 0.4 1018271
03:00+7всв38959 0.4 1018181
06:00+6всв369562 0.0 1020127
09:00+9всв4590100 0.0 1020411
12:00+11в4679100 0.1 1021859
15:00+12в4675100 0.3 1022913
18:00+11всв5881100 0.5 1022706
21:00+9всв5109195 0.7 1022494
18 апреля, вс
вс1800:00+9всв61388100 0.3 1022638
03:00+8всв61287100 1.1 1022405
06:00+7всв6129198 0.0 1023344
09:00+8в61086100 0.1 1023402
12:00+8в5987100 0.5 1024437
15:00+8в4990100 1.4 1025377
18:00+9вюв4993100 2.7 1024326
21:00+8в379698 4.7 1025229
19 апреля, пн
пн1900:00+8всв4996100 1.0 1025301
03:00+8в51086100 1.4 1025360
06:00+7в51184100 0.0 1024309
09:00+8в61182100 0.9 1024383
12:00+12вюв71071100 0.0 1023836
15:00+13вюв71160100 0.1 10221596
18:00+12в81260100 0.0 10201346
21:00+10в71563100 0.0 1019811